Weather History for Bedford, MA

Change the Weather History Date:

Sunday, June 23, 2013

  Actual Average Record
Temperature  
Mean Temperature 76 °F -  
Max Temperature 88 °F 78 °F 91 °F (1965)
Min Temperature 64 °F 57 °F 43 °F (1958)
Cooling Degree Days 11    
Growing Degree Days 26 (Base 50)    
Moisture  
Dew Point 65 °F    
Average Humidity 68    
Maximum Humidity 79    
Minimum Humidity 55    
Precipitation  
Precipitation 0.00 in - - ()
Sea Level Pressure  
Sea Level Pressure 30.10 in    
Wind  
Wind Speed 8 mph (SSW)    
Max Wind Speed 18 mph    
Max Gust Speed 25 mph    
Visibility 10 miles    
Events      
Averages and records for this station are not official NWS values.
T = Trace of Precipitation, MM = Missing Value Source: NWS Daily Summary

Daily Weather History Graph

Daily Weather History Graph

Search for Another Location

Airport:

Trip Planner

Search our weather history database for the weather conditions in past years. The results will help you decide how hot, cold, wet, or windy it might be!

Date:

Astronomy

Jun. 23, 2013 Rise Set
Actual Time 5:08 AM EDT 8:26 PM EDT
Civil Twilight 4:33 AM EDT 9:01 PM EDT
Nautical Twilight 3:48 AM EDT 9:46 PM EDT
Astronomical Twilight 2:53 AM EDT 10:41 PM EDT
Moon 8:33 PM EDT (6/23) 5:23 AM EDT (6/23)
Length of Visible Light 16h 27m
Length of Day
15h 17m
Full, 100% of the Moon is Illuminated
Jun 23
Full
Jun 30
Last Quarter
Jul 8
New
Jul 15
First Quarter
Jul 22
Full

Hourly Weather History & Observations

Time (EDT) Temp. Heat Index Dew Point Humidity Pressure Visibility Wind Dir Wind Speed Gust Speed Precip Events Conditions
12:56 AM 66.9 °F - 57.0 °F 70% 30.18 in 10.0 mi SSW 9.2 mph - N/A   Mostly Cloudy
1:56 AM 66.9 °F - 57.0 °F 70% 30.18 in 10.0 mi SW 5.8 mph - N/A   Overcast
2:56 AM 64.9 °F - 57.9 °F 78% 30.16 in 10.0 mi Calm Calm - 0.00 in   Overcast
3:56 AM 64.9 °F - 57.0 °F 75% 30.15 in 10.0 mi SSW 3.5 mph - 0.00 in   Partly Cloudy
4:56 AM 64.9 °F - 57.0 °F 75% 30.15 in 10.0 mi SSW 5.8 mph - N/A   Clear
5:56 AM 64.0 °F - 57.0 °F 78% 30.14 in 10.0 mi SSW 3.5 mph - N/A   Clear
6:56 AM 66.0 °F - 57.9 °F 75% 30.15 in 10.0 mi South 4.6 mph - N/A   Clear
7:56 AM 70.0 °F - 61.0 °F 73% 30.17 in 10.0 mi SW 6.9 mph - N/A   Scattered Clouds
8:56 AM 73.0 °F - 63.0 °F 71% 30.15 in 10.0 mi SW 6.9 mph - N/A   Partly Cloudy
9:56 AM 75.9 °F - 64.9 °F 69% 30.14 in 10.0 mi South 6.9 mph - N/A   Scattered Clouds
10:56 AM 81.0 °F 83.8 °F 68.0 °F 65% 30.13 in 10.0 mi SW 9.2 mph - N/A   Scattered Clouds
11:56 AM 84.0 °F 88.4 °F 70.0 °F 63% 30.12 in 10.0 mi SSW 8.1 mph - N/A   Clear
12:56 PM 84.9 °F 89.4 °F 70.0 °F 61% 30.10 in 10.0 mi SSW 9.2 mph - N/A   Scattered Clouds
1:56 PM 88.0 °F 93.8 °F 71.1 °F 57% 30.07 in 10.0 mi SW 11.5 mph 18.4 mph N/A   Scattered Clouds
2:56 PM 88.0 °F 93.8 °F 71.1 °F 57% 30.06 in 10.0 mi SSW 13.8 mph 21.9 mph N/A   Mostly Cloudy
3:56 PM 88.0 °F 93.8 °F 71.1 °F 57% 30.04 in 10.0 mi SW 18.4 mph 25.3 mph N/A   Mostly Cloudy
4:56 PM 87.1 °F 91.3 °F 69.1 °F 55% 30.02 in 10.0 mi SW 13.8 mph 23.0 mph N/A   Mostly Cloudy
5:56 PM 84.9 °F 88.2 °F 68.0 °F 57% 30.01 in 10.0 mi SSW 11.5 mph 21.9 mph N/A   Clear
6:56 PM 82.9 °F 85.4 °F 66.9 °F 58% 30.03 in 10.0 mi SSW 15.0 mph 21.9 mph N/A   Scattered Clouds
7:56 PM 79.0 °F - 66.0 °F 64% 30.03 in 10.0 mi SSW 10.4 mph 19.6 mph N/A   Clear
8:56 PM 77.0 °F - 66.9 °F 71% 30.05 in 10.0 mi SSW 8.1 mph - N/A   Clear
9:56 PM 75.9 °F - 68.0 °F 76% 30.06 in 10.0 mi SW 9.2 mph - N/A   Clear
10:56 PM 75.0 °F - 68.0 °F 79% 30.06 in 10.0 mi SW 10.4 mph - N/A   Clear
11:56 PM 73.9 °F - 66.9 °F 79% 30.04 in 10.0 mi SW 8.1 mph - N/A   Clear